Location: Juzet
(42.9779°N, 0.7597°E)
Time: 08:42:16
(UTC+00:00)

ATLAS 5 CENTAUR R/B - Pass Details

Date: 14 July 2020
Orbit: 534 x 1124 km, 63.4° (Epoch: 30 July)

Event Time Altitude Azimuth Distance (km) Brightness Sun altitude
Rises 03:18:52 0° 320° (NW) 3,343 5.4 -11.3°
Reaches altitude 10° 03:21:10 10° 318° (NW) 2,493 4.7 -11.0°
Maximum altitude 03:26:58 64° 238° (WSW) 1,053 2.4 -10.2°
Drops below altitude 10° 03:33:39 10° 159° (SSE) 2,856 4.7 -9.3°
Sets 03:36:28 0° 156° (SSE) 3,863 5.4 -8.9°
